Simultaneous Nadir Overpasses (SNOs) Predictions

Prediction of SNOs between NOAA-19 and TERRA Satellite Orbit:

Table of predicted SNOs for the next 14.0 days since TLE Epoch: 6/19/2016
Index Date (NOAA-19) Time (NOAA-19) Lat,Lon (NOAA-19) SZA (NOAA-19 ) Date (TERRA) Time (TERRA) Lat,Lon (TERRA) SZA (TERRA ) Distance(km) Time Diff (sec)
1 06/19/2016 12:17:12 74.53, 0.96 51.09 06/19/2016 12:18:17 74.46, 4.11 51.13 94.11 65
2 06/19/2016 13:07:53 -73.80, 170.17 129.59 06/19/2016 13:07:57 -73.82, 170.27 129.57 3.77 4
3 06/19/2016 13:58:42 72.98, -20.66 49.69 06/19/2016 13:57:37 73.06, -23.68 49.62 98.66 65
4 06/21/2016 17:51:01 -74.08, 98.75 129.34 06/21/2016 17:52:12 -73.97, 99.54 129.41 26.93 71
5 06/21/2016 18:42:01 73.78, -93.27 50.39 06/21/2016 18:41:41 73.78, -93.23 50.39 1.24 20
6 06/23/2016 23:25:05 73.85,-164.16 50.48 06/23/2016 23:25:58 73.83,-164.21 50.46 3.16 53
7 06/24/2016 00:15:59 -73.78, 3.30 129.59 06/24/2016 00:15:27 -73.76, 3.28 129.61 1.52 32
8 06/26/2016 04:59:03 -73.86, -67.63 129.45 06/26/2016 04:59:43 -73.86, -67.58 129.45 1.60 40
9 06/26/2016 05:50:08 73.78, 99.80 50.48 06/26/2016 05:49:10 73.77, 99.86 50.46 2.49 58
10 06/28/2016 10:33:12 73.86, 28.88 50.65 06/28/2016 10:33:26 73.86, 28.98 50.65 3.22 14
11 06/28/2016 11:24:05 -73.76,-163.59 129.45 06/28/2016 11:22:56 -73.75,-163.63 129.47 2.08 69
12 06/30/2016 15:16:27 74.48, -43.46 51.34 06/30/2016 15:17:34 74.35, -40.95 51.31 76.22 67
13 06/30/2016 16:07:09 -73.85, 125.47
